Weather History for KMIW - March, 2011

Change the Weather History Date:

Monday, March 28, 2011

  Actual Average Record
Temperature  
Mean Temperature 31 °F 42 °F  
Max Temperature 42 °F 53 °F 71 °F (2005)
Min Temperature 20 °F 31 °F 17 °F (2015)
Degree Days  
Heating Degree Days 34 23  
Month to date heating degree days 837 827  
Since 1 July heating degree days 6146 6230  
Cooling Degree Days 0 0  
Month to date cooling degree days 0 0  
Year to date cooling degree days 0 0  
Moisture  
Dew Point 16 °F    
Average Humidity 59    
Maximum Humidity 84    
Minimum Humidity 33    
Precipitation  
Precipitation 0.00 in 0.09 in 0.26 in (1999)
Month to date precipitation 1.21 1.70  
Year to date precipitation 1.50  
Sea Level Pressure  
Sea Level Pressure 30.24 in    
Wind  
Wind Speed 10 mph (East)    
Max Wind Speed 16 mph    
Max Gust Speed 22 mph    
Visibility 10 miles    
Events      
T = Trace of Precipitation, MM = Missing Value Source: NWS Daily Summary

Daily Weather History Graph

Daily Weather History Graph

Search for Another Location

Airport or City:

Trip Planner

Search our weather history database for the weather conditions in past years. The results will help you decide how hot, cold, wet, or windy it might be!

Date:

Astronomy

Mar. 28, 2011 Rise Set
Actual Time 7:01 AM CDT 7:32 PM CDT
Civil Twilight 6:33 AM CDT 8:00 PM CDT
Nautical Twilight 6:00 AM CDT 8:33 PM CDT
Astronomical Twilight 5:26 AM CDT 9:08 PM CDT
Moon 3:59 AM CDT (3/28) 2:08 PM CDT (3/28)
Length of Visible Light 13h 27m
Length of Day
12h 31m
Waning Crescent, 29% of the Moon is Illuminated
Mar 28
Waning Crescent
Apr 3
New
Apr 11
First Quarter
Apr 17
Full
Apr 24
Last Quarter

Hourly Weather History & Observations

Time (CDT) Temp. Windchill Dew Point Humidity Pressure Visibility Wind Dir Wind Speed Gust Speed Precip Events Conditions
12:53 AM 28.0 °F 20.0 °F 19.9 °F 72% 30.23 in 10.0 mi East 8.1 mph - N/A   Mostly Cloudy
1:53 AM 27.0 °F 18.7 °F 19.0 °F 72% 30.24 in 10.0 mi East 8.1 mph - N/A   Clear
2:53 AM 25.0 °F 17.1 °F 18.0 °F 75% 30.24 in 10.0 mi East 6.9 mph - N/A   Clear
3:53 AM 24.1 °F 16.0 °F 17.1 °F 75% 30.24 in 10.0 mi ENE 6.9 mph - N/A   Clear
4:53 AM 23.0 °F 13.9 °F 18.0 °F 81% 30.25 in 10.0 mi East 8.1 mph - N/A   Clear
5:53 AM 21.0 °F 12.4 °F 17.1 °F 85% 30.26 in 10.0 mi East 6.9 mph - N/A   Clear
6:53 AM 21.9 °F 11.7 °F 17.1 °F 82% 30.27 in 10.0 mi East 9.2 mph - N/A   Clear
7:53 AM 24.1 °F 14.4 °F 19.0 °F 81% 30.28 in 10.0 mi ESE 9.2 mph - N/A   Clear
8:53 AM 28.0 °F 16.5 °F 17.1 °F 63% 30.30 in 10.0 mi ESE 15.0 mph - N/A   Clear
9:53 AM 32.0 °F 23.0 °F 14.0 °F 48% 30.30 in 10.0 mi ESE 11.5 mph - N/A   Clear
10:53 AM 35.1 °F 26.4 °F 12.0 °F 39% 30.30 in 10.0 mi ESE 12.7 mph - N/A   Clear
11:53 AM 37.0 °F 29.3 °F 12.0 °F 36% 30.29 in 10.0 mi ESE 11.5 mph 16.1 mph N/A   Clear
12:53 PM 37.9 °F 32.7 °F 12.0 °F 35% 30.27 in 10.0 mi Variable 6.9 mph - N/A   Clear
1:53 PM 39.9 °F 31.8 °F 12.9 °F 33% 30.25 in 10.0 mi East 15.0 mph 20.7 mph N/A   Clear
2:53 PM 39.9 °F 32.1 °F 12.9 °F 33% 30.23 in 10.0 mi East 13.8 mph 18.4 mph N/A   Clear
3:53 PM 39.9 °F 32.5 °F 12.9 °F 33% 30.21 in 10.0 mi ENE 12.7 mph - N/A   Clear
4:53 PM 41.0 °F 33.5 °F 15.1 °F 35% 30.19 in 10.0 mi East 13.8 mph 19.6 mph N/A   Clear
5:53 PM 39.0 °F 31.0 °F 14.0 °F 36% 30.19 in 10.0 mi East 13.8 mph - N/A   Clear
6:53 PM 37.9 °F 30.9 °F 14.0 °F 38% 30.19 in 10.0 mi East 10.4 mph - N/A   Clear
7:53 PM 35.1 °F 29.3 °F 18.0 °F 50% 30.19 in 10.0 mi East 6.9 mph - N/A   Clear
8:53 PM 33.1 °F 26.9 °F 19.0 °F 56% 30.21 in 10.0 mi ENE 6.9 mph - N/A   Clear
9:53 PM 30.9 °F 25.2 °F 19.9 °F 64% 30.23 in 10.0 mi ENE 5.8 mph - N/A   Clear
10:53 PM 32.0 °F 24.2 °F 21.0 °F 64% 30.23 in 10.0 mi ENE 9.2 mph - N/A   Partly Cloudy
11:53 PM 32.0 °F 25.6 °F 21.0 °F 64% 30.24 in 10.0 mi ENE 6.9 mph - N/A   Scattered Clouds